| time (UTC) | temp F | wind direction | speed MPH | gust MPH | rain 1hr in | rain 24hr in | rain mn in | humidity % | barometer mb |
| 20260506080303 | 42 | 0 | 0.0 | 0.0 | 0.00 | 0.04 | 0.00 | 90 | 1017.0 |
| 20260506073303 | 42 | 0 | 0.0 | 0.0 | 0.00 | 0.04 | 0.00 | 92 | 1016.8 |
| 20260506072702 | 42 | 0 | 0.0 | 0.0 | 0.00 | 0.04 | 0.00 | 92 | 1016.9 |
| 20260506072103 | 42 | 0 | 0.0 | 0.0 | 0.00 | 0.04 | 0.00 | 92 | 1016.8 |
| 20260506071503 | 42 | 0 | 0.0 | 0.0 | 0.00 | 0.04 | 0.00 | 93 | 1016.7 |
| 20260506070903 | 42 | 0 | 0.0 | 0.0 | 0.00 | 0.04 | 0.00 | 93 | 1016.7 |
| 20260506070303 | 42 | 0 | 0.0 | 0.0 | 0.00 | 0.04 | 0.04 | 93 | 1016.6 |
| 20260506062103 | 42 | 0 | 0.0 | 0.0 | 0.00 | 0.04 | 0.04 | 92 | 1016.3 |
| 20260506061503 | 42 | 0 | 0.0 | 1.0 | 0.00 | 0.04 | 0.04 | 92 | 1016.2 |
| 20260506060903 | 42 | 0 | 0.0 | 1.0 | 0.00 | 0.04 | 0.04 | 91 | 1016.1 |
| 20260506060303 | 42 | 0 | 0.0 | 1.0 | 0.00 | 0.04 | 0.04 | 92 | 1016.1 |
| 20260506050902 | 42 | 0 | 0.0 | 0.0 | 0.00 | 0.04 | 0.04 | 92 | 1015.6 |
| 20260506050302 | 42 | 0 | 0.0 | 0.0 | 0.00 | 0.04 | 0.04 | 92 | 1015.5 |
| 20260506045102 | 42 | 0 | 0.0 | 0.0 | 0.00 | 0.04 | 0.04 | 92 | 1015.4 |
| 20260506044503 | 42 | 0 | 0.0 | 0.0 | 0.00 | 0.04 | 0.04 | 92 | 1015.5 |
| 20260506043903 | 42 | 0 | 0.0 | 0.0 | 0.00 | 0.04 | 0.04 | 92 | 1015.4 |
| 20260506043302 | 42 | 0 | 0.0 | 0.0 | 0.00 | 0.04 | 0.04 | 92 | 1015.3 |
| 20260506042702 | 42 | 0 | 0.0 | 0.0 | 0.00 | 0.04 | 0.04 | 92 | 1015.4 |
| 20260506042102 | 42 | 0 | 0.0 | 0.0 | 0.00 | 0.04 | 0.04 | 92 | 1015.3 |
| 20260506041502 | 42 | 0 | 0.0 | 0.0 | 0.00 | 0.04 | 0.04 | 92 | 1015.2 |
| 20260506040903 | 42 | 0 | 0.0 | 0.0 | 0.00 | 0.04 | 0.04 | 92 | 1015.2 |
| 20260506040302 | 42 | 0 | 0.0 | 0.0 | 0.00 | 0.04 | 0.04 | 92 | 1015.0 |
| 20260506035703 | 42 | 0 | 0.0 | 0.0 | 0.00 | 0.04 | 0.04 | 91 | 1015.0 |
| 20260506034702 | 42 | 0 | 0.0 | 0.0 | 0.00 | 0.04 | 0.04 | 92 | 1015.0 |
| 20260506034102 | 42 | 0 | 0.0 | 0.0 | 0.00 | 0.04 | 0.04 | 92 | 1014.9 |
| 20260506033502 | 42 | 0 | 0.0 | 0.0 | 0.00 | 0.04 | 0.04 | 92 | 1014.8 |
| 20260506032902 | 42 | 0 | 0.0 | 0.0 | 0.00 | 0.04 | 0.04 | 92 | 1014.8 |
| 20260506032305 | 42 | 0 | 0.0 | 0.0 | 0.00 | 0.04 | 0.04 | 92 | 1014.8 |
| 20260506031702 | 42 | 0 | 0.0 | 0.0 | 0.00 | 0.04 | 0.04 | 92 | 1014.7 |
| 20260506031103 | 42 | 0 | 0.0 | 0.0 | 0.00 | 0.04 | 0.04 | 92 | 1014.5 |
| 20260506030504 | 42 | 0 | 0.0 | 0.0 | 0.00 | 0.04 | 0.04 | 91 | 1014.6 |
| 20260506025902 | 42 | 0 | 0.0 | 0.0 | 0.00 | 0.04 | 0.04 | 91 | 1014.4 |
| 20260506025305 | 42 | 0 | 0.0 | 0.0 | 0.00 | 0.04 | 0.04 | 90 | 1014.5 |
| 20260506024702 | 43 | 0 | 0.0 | 0.0 | 0.00 | 0.04 | 0.04 | 90 | 1014.5 |
| 20260506024102 | 43 | 0 | 0.0 | 0.0 | 0.00 | 0.04 | 0.04 | 91 | 1014.4 |
| 20260506022902 | 43 | 0 | 0.0 | 0.0 | 0.00 | 0.04 | 0.04 | 91 | 1014.4 |
| 20260506022305 | 43 | 0 | 0.0 | 0.0 | 0.00 | 0.04 | 0.04 | 93 | 1014.4 |
| 20260506021702 | 43 | 0 | 0.0 | 0.0 | 0.00 | 0.04 | 0.04 | 93 | 1014.4 |
| 20260506021102 | 43 | 0 | 0.0 | 0.0 | 0.00 | 0.04 | 0.04 | 93 | 1014.4 |
| 20260506020503 | 44 | 0 | 0.0 | 1.0 | 0.00 | 0.04 | 0.04 | 92 | 1014.3 |
| 20260506015902 | 44 | 0 | 0.0 | 1.0 | 0.00 | 0.04 | 0.04 | 93 | 1014.4 |
| 20260506015302 | 44 | 0 | 0.0 | 0.0 | 0.00 | 0.04 | 0.04 | 94 | 1014.4 |
| 20260506014702 | 44 | 0 | 0.0 | 0.0 | 0.00 | 0.04 | 0.04 | 94 | 1014.3 |
| 20260506014102 | 45 | 0 | 0.0 | 0.0 | 0.00 | 0.04 | 0.04 | 94 | 1014.3 |
| 20260506013503 | 45 | 0 | 0.0 | 0.0 | 0.00 | 0.04 | 0.04 | 94 | 1014.2 |
| 20260506012902 | 45 | 0 | 0.0 | 0.0 | 0.00 | 0.04 | 0.04 | 94 | 1014.2 |
| 20260506012307 | 45 | 0 | 0.0 | 0.0 | 0.00 | 0.04 | 0.04 | 96 | 1014.3 |
| 20260506011702 | 45 | 0 | 0.0 | 0.0 | 0.00 | 0.04 | 0.04 | 96 | 1014.4 |
| 20260506011102 | 44 | 0 | 0.0 | 0.0 | 0.00 | 0.04 | 0.04 | 96 | 1014.3 |
| 20260506010503 | 44 | 0 | 0.0 | 0.0 | 0.00 | 0.04 | 0.04 | 96 | 1014.4 |
| 20260506005902 | 44 | 0 | 0.0 | 0.0 | 0.00 | 0.04 | 0.04 | 96 | 1014.4 |
| 20260506005302 | 44 | 0 | 0.0 | 0.0 | 0.00 | 0.04 | 0.04 | 97 | 1014.4 |
| 20260506004702 | 43 | 0 | 0.0 | 0.0 | 0.00 | 0.04 | 0.04 | 97 | 1014.3 |
| 20260506004102 | 43 | 0 | 0.0 | 0.0 | 0.00 | 0.04 | 0.04 | 97 | 1014.3 |
| 20260506003503 | 43 | 0 | 0.0 | 0.0 | 0.00 | 0.04 | 0.04 | 97 | 1014.2 |
| 20260506002902 | 43 | 0 | 0.0 | 0.0 | 0.00 | 0.04 | 0.04 | 97 | 1014.2 |
| 20260506002305 | 42 | 0 | 0.0 | 1.0 | 0.00 | 0.04 | 0.04 | 97 | 1014.2 |
| 20260506001702 | 42 | 0 | 0.0 | 1.0 | 0.00 | 0.04 | 0.04 | 97 | 1014.2 |
| 20260506001102 | 42 | 0 | 0.0 | 5.0 | 0.00 | 0.04 | 0.04 | 96 | 1014.2 |
| 20260506000502 | 42 | 172 | 1.0 | 5.0 | 0.00 | 0.04 | 0.04 | 96 | 1014.2 |
| 20260505235902 | 42 | 0 | 0.0 | 0.0 | 0.00 | 0.04 | 0.04 | 97 | 1014.2 |
| 20260505235304 | 42 | 0 | 0.0 | 2.0 | 0.00 | 0.04 | 0.04 | 97 | 1014.1 |
| 20260505234702 | 42 | 0 | 0.0 | 3.0 | 0.00 | 0.04 | 0.04 | 96 | 1014.3 |
| 20260505234102 | 42 | 0 | 0.0 | 5.0 | 0.00 | 0.04 | 0.04 | 96 | 1014.4 |
| 20260505233502 | 42 | 0 | 0.0 | 0.0 | 0.00 | 0.04 | 0.04 | 96 | 1014.4 |
| 20260505232902 | 42 | 0 | 0.0 | 3.0 | 0.00 | 0.04 | 0.04 | 97 | 1014.3 |
| 20260505232305 | 43 | 0 | 0.0 | 3.0 | 0.00 | 0.04 | 0.04 | 97 | 1014.3 |
| 20260505231702 | 43 | 0 | 0.0 | 0.0 | 0.00 | 0.04 | 0.04 | 97 | 1014.3 |
| 20260505231102 | 43 | 0 | 0.0 | 0.0 | 0.00 | 0.04 | 0.04 | 97 | 1014.3 |
| 20260505225902 | 43 | 0 | 0.0 | 0.0 | 0.00 | 0.04 | 0.04 | 97 | 1014.4 |
| 20260505225305 | 43 | 0 | 0.0 | 0.0 | 0.00 | 0.04 | 0.04 | 97 | 1014.4 |
| 20260505224702 | 43 | 0 | 0.0 | 0.0 | 0.00 | 0.04 | 0.04 | 97 | 1014.4 |
| 20260505224102 | 43 | 0 | 0.0 | 0.0 | 0.00 | 0.04 | 0.04 | 97 | 1014.4 |
| 20260505223506 | 43 | 0 | 0.0 | 0.0 | 0.00 | 0.04 | 0.04 | 97 | 1014.4 |
| 20260505222902 | 43 | 0 | 0.0 | 0.0 | 0.00 | 0.04 | 0.04 | 97 | 1014.4 |
| 20260505222305 | 43 | 0 | 0.0 | 5.0 | 0.00 | 0.04 | 0.04 | 97 | 1014.2 |
| 20260505221702 | 43 | 172 | 1.0 | 5.0 | 0.00 | 0.04 | 0.04 | 97 | 1014.3 |
| 20260505221102 | 43 | 0 | 0.0 | 0.0 | 0.00 | 0.04 | 0.04 | 97 | 1014.3 |
| 20260505220503 | 43 | 0 | 0.0 | 0.0 | 0.00 | 0.04 | 0.04 | 97 | 1014.3 |
| 20260505215902 | 43 | 0 | 0.0 | 5.0 | 0.00 | 0.04 | 0.04 | 97 | 1014.3 |
| 20260505215304 | 43 | 0 | 0.0 | 5.0 | 0.00 | 0.04 | 0.04 | 97 | 1014.3 |
| 20260505214702 | 43 | 0 | 0.0 | 6.0 | 0.00 | 0.04 | 0.04 | 97 | 1014.2 |
| 20260505214102 | 42 | 172 | 2.0 | 6.0 | 0.00 | 0.04 | 0.04 | 97 | 1014.3 |
| 20260505213502 | 42 | 0 | 0.0 | 11.0 | 0.00 | 0.04 | 0.04 | 97 | 1014.3 |
| 20260505212902 | 42 | 0 | 0.0 | 11.0 | 0.00 | 0.05 | 0.04 | 97 | 1014.4 |
| 20260505212305 | 42 | 0 | 0.0 | 2.0 | 0.00 | 0.05 | 0.04 | 97 | 1014.3 |
| 20260505211702 | 42 | 0 | 0.0 | 9.0 | 0.00 | 0.05 | 0.04 | 97 | 1014.2 |
| 20260505211102 | 42 | 0 | 0.0 | 12.0 | 0.00 | 0.05 | 0.04 | 97 | 1014.0 |
| 20260505210502 | 42 | 172 | 1.0 | 12.0 | 0.00 | 0.05 | 0.04 | 96 | 1013.9 |
| 20260505205902 | 42 | 172 | 5.0 | 12.0 | 0.00 | 0.05 | 0.04 | 97 | 1013.9 |
| 20260505205305 | 42 | 172 | 3.0 | 10.0 | 0.00 | 0.05 | 0.04 | 96 | 1013.9 |
| 20260505204702 | 41 | 172 | 2.0 | 9.0 | 0.00 | 0.05 | 0.04 | 96 | 1014.0 |
| 20260505204102 | 42 | 172 | 3.0 | 7.0 | 0.00 | 0.05 | 0.04 | 96 | 1014.0 |
| 20260505203502 | 42 | 0 | 0.0 | 7.0 | 0.00 | 0.05 | 0.04 | 96 | 1013.9 |
| 20260505202902 | 42 | 0 | 0.0 | 10.0 | 0.00 | 0.05 | 0.04 | 96 | 1013.9 |
| 20260505202302 | 43 | 0 | 0.0 | 10.0 | 0.00 | 0.05 | 0.04 | 97 | 1013.8 |
| 20260505201702 | 43 | 0 | 0.0 | 6.0 | 0.00 | 0.05 | 0.04 | 96 | 1013.8 |
| 20260505201102 | 43 | 0 | 0.0 | 8.0 | 0.00 | 0.05 | 0.04 | 97 | 1013.7 |
| 20260505200502 | 42 | 172 | 1.0 | 8.0 | 0.00 | 0.05 | 0.04 | 96 | 1013.8 |
| 20260505195902 | 42 | 0 | 0.0 | 0.0 | 0.00 | 0.05 | 0.04 | 96 | 1013.8 |
| 20260505195304 | 42 | 0 | 0.0 | 0.0 | 0.00 | 0.05 | 0.04 | 96 | 1013.8 |
| 20260505194702 | 42 | 0 | 0.0 | 0.0 | 0.00 | 0.05 | 0.04 | 96 | 1013.8 |
| 20260505194102 | 42 | 0 | 0.0 | 0.0 | 0.00 | 0.05 | 0.04 | 96 | 1013.8 |
| 20260505193502 | 42 | 0 | 0.0 | 0.0 | 0.00 | 0.05 | 0.04 | 96 | 1013.8 |
| 20260505192902 | 42 | 0 | 0.0 | 0.0 | 0.00 | 0.05 | 0.04 | 96 | 1013.8 |
| 20260505192305 | 42 | 0 | 0.0 | 0.0 | 0.00 | 0.05 | 0.04 | 96 | 1013.8 |
| 20260505191702 | 41 | 0 | 0.0 | 9.0 | 0.00 | 0.05 | 0.04 | 95 | 1013.6 |
| 20260505191102 | 42 | 172 | 3.0 | 9.0 | 0.00 | 0.05 | 0.04 | 95 | 1013.7 |
| 20260505190502 | 42 | 172 | 1.0 | 9.0 | 0.00 | 0.05 | 0.04 | 95 | 1013.7 |
| 20260505185902 | 42 | 172 | 3.0 | 9.0 | 0.00 | 0.05 | 0.04 | 95 | 1013.7 |
| 20260505185304 | 43 | 172 | 3.0 | 8.0 | 0.00 | 0.05 | 0.04 | 95 | 1013.6 |
| 20260505184702 | 43 | 0 | 0.0 | 7.0 | 0.00 | 0.05 | 0.04 | 96 | 1013.6 |
| 20260505184102 | 43 | 172 | 1.0 | 7.0 | 0.00 | 0.05 | 0.04 | 95 | 1013.5 |
| 20260505183502 | 43 | 0 | 0.0 | 0.0 | 0.00 | 0.06 | 0.04 | 95 | 1013.5 |
| 20260505182904 | 42 | 0 | 0.0 | 10.0 | 0.00 | 0.06 | 0.04 | 94 | 1013.5 |
| 20260505182305 | 43 | 172 | 3.0 | 10.0 | 0.00 | 0.06 | 0.04 | 95 | 1013.4 |
| 20260505181702 | 43 | 0 | 0.0 | 7.0 | 0.00 | 0.06 | 0.04 | 95 | 1013.5 |
| 20260505181102 | 43 | 172 | 1.0 | 7.0 | 0.00 | 0.06 | 0.04 | 94 | 1013.6 |
| 20260505180502 | 43 | 0 | 0.0 | 3.0 | 0.00 | 0.06 | 0.04 | 94 | 1013.6 |
| 20260505175903 | 43 | 0 | 0.0 | 9.0 | 0.00 | 0.06 | 0.04 | 95 | 1013.4 |
| 20260505175305 | 43 | 0 | 0.0 | 9.0 | 0.00 | 0.06 | 0.04 | 96 | 1013.4 |
| 20260505174702 | 43 | 172 | 1.0 | 6.0 | 0.00 | 0.06 | 0.04 | 96 | 1013.2 |
| 20260505174102 | 43 | 0 | 0.0 | 0.0 | 0.00 | 0.06 | 0.04 | 96 | 1013.1 |
| 20260505173502 | 42 | 0 | 0.0 | 11.0 | 0.00 | 0.06 | 0.04 | 96 | 1013.1 |
| 20260505172902 | 42 | 0 | 0.0 | 6.0 | 0.01 | 0.06 | 0.04 | 96 | 1012.9 |
| 20260505172305 | 42 | 0 | 0.0 | 7.0 | 0.01 | 0.06 | 0.04 | 96 | 1013.1 |
| 20260505171702 | 42 | 172 | 3.0 | 7.0 | 0.01 | 0.06 | 0.04 | 96 | 1012.9 |
| 20260505171102 | 42 | 0 | 0.0 | 8.0 | 0.01 | 0.07 | 0.04 | 96 | 1012.8 |
| 20260505170502 | 42 | 172 | 3.0 | 8.0 | 0.01 | 0.07 | 0.04 | 97 | 1012.8 |
| 20260505165902 | 42 | 172 | 2.0 | 13.0 | 0.01 | 0.07 | 0.04 | 97 | 1012.8 |
| 20260505165302 | 42 | 172 | 2.0 | 10.0 | 0.01 | 0.07 | 0.04 | 97 | 1012.7 |
| 20260505164702 | 42 | 172 | 1.0 | 8.0 | 0.01 | 0.07 | 0.04 | 97 | 1012.8 |
| 20260505164102 | 42 | 0 | 0.0 | 0.0 | 0.01 | 0.07 | 0.04 | 97 | 1012.6 |
| 20260505163502 | 41 | 0 | 0.0 | 0.0 | 0.01 | 0.07 | 0.04 | 97 | 1012.7 |
| 20260505162902 | 41 | 0 | 0.0 | 0.0 | 0.00 | 0.06 | 0.03 | 97 | 1012.7 |
| 20260505162302 | 41 | 0 | 0.0 | 0.0 | 0.00 | 0.06 | 0.03 | 97 | 1012.6 |
| 20260505161702 | 41 | 0 | 0.0 | 0.0 | 0.00 | 0.06 | 0.03 | 96 | 1012.6 |
| 20260505161102 | 41 | 0 | 0.0 | 0.0 | 0.00 | 0.06 | 0.03 | 97 | 1012.4 |
| 20260505160502 | 41 | 0 | 0.0 | 0.0 | 0.00 | 0.06 | 0.03 | 97 | 1012.4 |
| 20260505152902 | 41 | 0 | 0.0 | 0.0 | 0.00 | 0.06 | 0.03 | 97 | 1012.3 |
| 20260505152304 | 41 | 0 | 0.0 | 0.0 | 0.00 | 0.06 | 0.03 | 97 | 1012.2 |
| 20260505151702 | 41 | 0 | 0.0 | 0.0 | 0.00 | 0.06 | 0.03 | 97 | 1012.2 |
| 20260505151102 | 41 | 0 | 0.0 | 0.0 | 0.00 | 0.06 | 0.03 | 96 | 1012.2 |
| 20260505150502 | 41 | 0 | 0.0 | 0.0 | 0.00 | 0.06 | 0.03 | 97 | 1012.0 |
| 20260505140502 | 40 | 0 | 0.0 | 0.0 | 0.01 | 0.06 | 0.03 | 97 | 1011.5 |
| 20260505124702 | 40 | 0 | 0.0 | 0.0 | 0.02 | 0.05 | 0.02 | 96 | 1011.3 |
| 20260505124102 | 40 | 0 | 0.0 | 0.0 | 0.02 | 0.05 | 0.02 | 96 | 1011.1 |
| 20260505123502 | 40 | 0 | 0.0 | 0.0 | 0.02 | 0.05 | 0.02 | 96 | 1011.1 |
| 20260505122902 | 40 | 0 | 0.0 | 0.0 | 0.01 | 0.04 | 0.01 | 96 | 1011.1 |
| 20260505122302 | 40 | 0 | 0.0 | 0.0 | 0.01 | 0.04 | 0.01 | 96 | 1011.1 |
| 20260505121702 | 40 | 0 | 0.0 | 0.0 | 0.01 | 0.04 | 0.01 | 96 | 1011.1 |
| 20260505121102 | 40 | 0 | 0.0 | 5.0 | 0.01 | 0.04 | 0.01 | 96 | 1011.1 |
| 20260505120502 | 40 | 172 | 2.0 | 6.0 | 0.01 | 0.04 | 0.01 | 96 | 1011.2 |
| 20260505115902 | 40 | 172 | 2.0 | 6.0 | 0.00 | 0.03 | 0.00 | 96 | 1011.1 |
| 20260505115304 | 40 | 0 | 0.0 | 5.0 | 0.00 | 0.03 | 0.00 | 96 | 1011.1 |
| 20260505114702 | 40 | 0 | 0.0 | 0.0 | 0.00 | 0.03 | 0.00 | 96 | 1011.1 |
| 20260505114102 | 40 | 0 | 0.0 | 0.0 | 0.00 | 0.03 | 0.00 | 96 | 1011.1 |
| 20260505113502 | 40 | 0 | 0.0 | 0.0 | 0.00 | 0.03 | 0.00 | 96 | 1011.1 |
| 20260505112902 | 40 | 0 | 0.0 | 0.0 | 0.00 | 0.03 | 0.00 | 96 | 1011.1 |
| 20260505112304 | 40 | 0 | 0.0 | 0.0 | 0.00 | 0.03 | 0.00 | 96 | 1011.1 |
| 20260505111702 | 40 | 0 | 0.0 | 6.0 | 0.00 | 0.03 | 0.00 | 96 | 1011.1 |
| 20260505111103 | 40 | 0 | 0.0 | 8.0 | 0.00 | 0.03 | 0.00 | 96 | 1011.1 |
| 20260505110502 | 41 | 0 | 0.0 | 7.0 | 0.00 | 0.03 | 0.00 | 96 | 1011.1 |
| 20260505101702 | 41 | 0 | 0.0 | 0.0 | 0.00 | 0.03 | 0.00 | 94 | 1011.3 |
| 20260505101102 | 41 | 0 | 0.0 | 0.0 | 0.00 | 0.03 | 0.00 | 94 | 1011.3 |
| 20260505100502 | 41 | 0 | 0.0 | 2.0 | 0.00 | 0.03 | 0.00 | 94 | 1011.2 |
| 20260505095902 | 41 | 0 | 0.0 | 7.0 | 0.00 | 0.03 | 0.00 | 94 | 1011.2 |
| 20260505095304 | 41 | 172 | 3.0 | 7.0 | 0.00 | 0.03 | 0.00 | 94 | 1011.2 |
| 20260505094702 | 41 | 0 | 0.0 | 7.0 | 0.00 | 0.03 | 0.00 | 94 | 1011.2 |
| 20260505094102 | 41 | 0 | 0.0 | 5.0 | 0.00 | 0.03 | 0.00 | 93 | 1011.3 |
| 20260505093502 | 41 | 0 | 0.0 | 7.0 | 0.00 | 0.03 | 0.00 | 93 | 1011.3 |
| 20260505092902 | 41 | 172 | 1.0 | 7.0 | 0.00 | 0.03 | 0.00 | 93 | 1011.4 |
| 20260505092304 | 41 | 172 | 2.0 | 7.0 | 0.00 | 0.03 | 0.00 | 93 | 1011.4 |
| 20260505091702 | 41 | 0 | 0.0 | 0.0 | 0.00 | 0.03 | 0.00 | 93 | 1011.6 |
| 20260505091102 | 41 | 0 | 0.0 | 3.0 | 0.00 | 0.03 | 0.00 | 94 | 1011.6 |
| 20260505090502 | 41 | 0 | 0.0 | 2.0 | 0.00 | 0.03 | 0.00 | 94 | 1011.6 |
| 20260505085902 | 41 | 0 | 0.0 | 0.0 | 0.00 | 0.03 | 0.00 | 95 | 1011.5 |
| 20260505085304 | 41 | 0 | 0.0 | 0.0 | 0.00 | 0.03 | 0.00 | 95 | 1011.7 |
| 20260505084702 | 41 | 0 | 0.0 | 0.0 | 0.00 | 0.03 | 0.00 | 95 | 1011.7 |
| 20260505084102 | 41 | 0 | 0.0 | 0.0 | 0.00 | 0.03 | 0.00 | 95 | 1011.7 |
| 20260505083502 | 41 | 0 | 0.0 | 0.0 | 0.00 | 0.03 | 0.00 | 95 | 1011.7 |
| 20260505082902 | 41 | 0 | 0.0 | 0.0 | 0.00 | 0.03 | 0.00 | 95 | 1011.8 |
| 20260505082304 | 41 | 0 | 0.0 | 0.0 | 0.00 | 0.03 | 0.00 | 95 | 1011.7 |
| 20260505081702 | 41 | 0 | 0.0 | 0.0 | 0.00 | 0.03 | 0.00 | 95 | 1011.8 |
| 20260505081102 | 41 | 0 | 0.0 | 5.0 | 0.00 | 0.03 | 0.00 | 95 | 1011.9 |